Weather in Butovo

Russia / Belgorod Oblast     50°45′49″N   36°10′49″E
temp.,
°C
wind,
m/s
gust,
m/s
humid.,
%
clouds,
%
prec.,
mm/h
press.,
hPa
HPBL,
m
15 april, thu
thu1500:00+11nne118799 0.6 101415
03:00+9sw369510 1.0 1014160
06:00+7sw36939 0.0 1014147
09:00+11s4570100 0.0 1014574
12:00+14sse465386 0.0 10131447
15:00+13sse666366 0.1 10131022
18:00+13sse566451 0.4 1012865
21:00+10sse368637 1.6 1012408
16 april, fri
fri1600:00+7sse36906 0.1 1013195
03:00+7se378793 0.2 1014326
06:00+6se48958 0.1 1014263
09:00+9sse677696 0.2 1015851
12:00+10sse677186 0.1 10161030
15:00+12sse565748 0.4 10161445
18:00+11sse566780 0.4 1016942
21:00+9sse238255 1.0 1017108
17 april, sat
sat1700:00+6s239057 0.3 101849
03:00+7wsw239247 0.5 1018136
06:00+5n1193100 0.0 101910
09:00+9w227177 0.0 1019644
12:00+11w3455100 0.1 10191611
15:00+10w456295 0.1 10191091
18:00+10wsw665815 0.0 10191181
21:00+6wsw367946 0.1 1020132
18 april, sun
sun1800:00+6sw368273 0.0 1020268
03:00+4sw369376 0.1 1020150
06:00+5wsw249099 0.0 1020164
09:00+6wsw2277100 0.0 1019349
12:00+10nw225596 0.1 10191385
15:00+11nw1251100 0.2 10191317
18:00+10nnw436482 0.0 1019706
21:00+7n368586 0.1 1020192
19 april, mon
mon1900:00+5n348815 0.0 102177
03:00+4n36948 0.0 1020115
06:00+4nne36965 0.0 1020113
09:00+9ne347562 0.0 1020701
12:00+11ne445799 0.1 10191455
15:00+11ne566296 0.1 1019879
18:00+11ene796995 0.1 1018757
21:00+8ene612775 0.1 1018518